[[{"header":{"parameterUnit":"m.s-1","parameterCategory":1,"la1":30.2991,"la2":30.254,"lo1":-89.0895,"lo2":-89.0444,"dy":0.0017,"dx":0.0017,"nx":28,"ny":28,"refTime":"2025-04-19T03:00:00:Z","depth":0,"parameterNumber":2,"parameterNumberName":"U-component_of_WINDS"},"data":[0,0,0,0,0,0,0,0,0,0,0,0,0,0,0,0,0,0,0,0,0,0,0,0,0,0,0,0,0,0,0,0,0,0,0,0,0,0,0,0,0,0,0,0,0,0,0,0,0,0,0,0,0,0,0,0,0,0,-2.5413,-2.5414,0,-2.5546,-2.5548,-2.5549,-2.5574,-2.5573,-2.5572,-2.5571,-2.571,-2.5715,-2.5719,0,0,0,0,0,0,0,0,0,0,0,0,0,-2.5185,-2.5189,-2.5413,-2.5415,-2.5416,-2.5546,-2.5548,-2.555,-2.5575,-2.5573,-2.5572,-2.5571,-2.5709,-2.5714,-2.572,0,0,0,0,0,0,0,0,0,0,0,0,0,-2.5297,-2.519,-2.5413,-2.5444,-2.5448,-2.5546,-2.5548,-2.555,-2.5575,-2.5573,-2.5572,-2.557,-2.5707,-2.5714,-2.5721,-2.5796,0,0,-2.5742,-2.5745,0,0,0,0,0,0,0,0,-2.5291,-2.5306,-2.5438,-2.5442,-2.5447,-2.5542,-2.5518,-2.5633,-2.5575,-2.5527,-2.5571,-2.5569,-2.5656,-2.5667,-2.5695,-2.5803,-2.5809,-2.5743,-2.5747,-2.575,-2.5752,0,0,0,0,0,0,0,-2.5283,-2.53,-2.5466,-2.544,-2.5445,-2.5453,-2.5468,-2.554,-2.5599,-2.5531,-2.5533,-2.5548,-2.5658,-2.5689,-2.5699,-2.5811,-2.5743,-2.5749,-2.5753,-2.5756,-2.599,-2.5992,0,0,0,0,0,0,-2.5269,-2.5293,-2.5461,-2.547,-2.5363,-2.5459,-2.5475,-2.5513,-2.5598,-2.5609,-2.555,-2.5549,-2.5677,-2.5691,-2.5704,-2.5799,-2.575,-2.5757,-2.5761,-2.5988,-2.599,-2.5993,0,0,0,0,0,0,-2.5264,-2.5284,-2.5456,-2.5382,-2.5405,-2.5464,-2.5507,-2.5517,-2.5547,-2.5612,-2.5623,-2.557,-2.5677,-2.5694,-2.5774,-2.5804,-2.576,-2.5766,-2.5986,-2.5989,-2.5991,-2.5989,0,0,0,0,0,0,-2.5257,-2.5282,-2.531,-2.5383,-2.5409,-2.5522,-2.5509,-2.552,-2.5559,-2.556,-2.5634,-2.5645,-2.5677,-2.5763,-2.5781,-2.5813,-2.5772,-2.5983,-2.5987,-2.5991,-2.5987,-2.5992,-2.5996,0,0,0,0,0,-2.5249,-2.5304,-2.5311,-2.5331,-2.5445,-2.5524,-2.5539,-2.5573,-2.5561,-2.5591,-2.5633,-2.5642,-2.5798,-2.5771,-2.5791,-2.5826,-2.5981,-2.5986,-2.599,-2.5985,-2.5991,-2.5996,0,0,0,0,0,0,-2.5234,-2.5314,-2.5323,-2.5403,-2.5456,-2.5528,-2.5565,-2.5578,-2.5637,-2.5635,-2.5677,-2.5693,-2.5771,-2.5807,-2.5775,-2.5905,-2.5889,-2.5898,-2.5878,-2.5884,-2.5889,-2.5878,-2.5778,0,0,0,0,0,-2.5239,-2.5295,-2.5363,-2.5427,-2.5454,-2.5505,-2.5541,-2.5563,-2.5621,-2.5643,-2.5691,-2.5748,-2.581,-2.5849,-2.591,-2.5993,-2.601,-2.6027,-2.6032,-2.6035,-2.6042,-2.609,-2.6099,-2.6007,-2.6007,-2.6007,0,0,-2.5252,-2.5303,-2.5336,-2.5426,-2.547,-2.5528,-2.5524,-2.5586,-2.563,-2.5653,-2.5731,-2.5769,-2.5835,-2.5916,-2.5955,-2.5949,-2.6072,-2.6041,-2.6043,-2.6048,-2.6096,-2.6104,-2.6112,-2.601,-2.601,-2.6009,0,0,-2.5304,-2.5348,-2.5407,-2.5451,-2.5518,-2.5553,-2.5567,-2.5637,-2.5663,-2.5742,-2.5761,-2.5816,-2.5921,-2.5967,-2.6005,-2.6079,-2.609,-2.6098,-2.6121,-2.6167,-2.6175,-2.6181,-2.6208,-2.6217,-2.6104,-2.6104,-2.6104,0,-2.5311,-2.5399,-2.5435,-2.5497,-2.5537,-2.5561,-2.5621,-2.5663,-2.5747,-2.5774,-2.5767,-2.5901,-2.5947,-2.6041,-2.6059,-2.6088,-2.6107,-2.6088,-2.617,-2.6177,-2.6184,-2.621,-2.622,-2.6105,-2.6105,-2.6105,-2.6105,0,-2.5405,-2.5466,-2.5505,-2.5585,-2.563,-2.569,-2.5738,-2.5779,-2.5798,-2.5834,-2.5916,-2.5972,-2.6045,-2.607,-2.6089,-2.6168,-2.6162,-2.6162,-2.6146,-2.6193,-2.6218,-2.6228,-2.6105,-2.6105,-2.6105,-2.6105,0,0,-2.5448,-2.5549,-2.5563,-2.56,-2.5677,-2.5726,-2.5789,-2.586,-2.5895,-2.5953,-2.6007,-2.6098,-2.6099,-2.6141,-2.6167,-2.6208,-2.6264,-2.6204,-2.6206,-2.6213,-2.6355,-2.6353,-2.6364,-2.6273,-2.6275,-2.6277,-2.6349,0,-2.5509,-2.5621,-2.5657,-2.5751,-2.5808,-2.5834,-2.5889,-2.5944,-2.598,-2.6035,-2.6076,-2.6139,-2.6136,-2.6162,-2.6204,-2.6248,-2.6293,-2.6244,-2.6325,-2.6328,-2.6306,-2.6377,-2.6376,-2.6441,-2.6359,-2.6361,-2.6362,0,-2.5595,-2.5654,-2.5753,-2.5824,-2.585,-2.5899,-2.5968,-2.602,-2.6084,-2.6107,-2.6156,-2.618,-2.6249,-2.6231,-2.6328,-2.6293,-2.633,-2.6357,-2.6361,-2.6368,-2.6346,-2.6386,-2.6462,-2.6472,-2.6378,-2.6377,-2.6376,0,-2.5616,-2.5721,-2.5794,-2.5825,-2.591,-2.5944,-2.5982,-2.6043,-2.6085,-2.6146,-2.6173,-2.6243,-2.628,-2.6334,-2.6376,-2.6359,-2.647,-2.6455,-2.6492,-2.6491,-2.6513,-2.651,-2.6595,-2.6538,-2.6537,-2.6537,-2.6537,0,-2.568,-2.574,-2.5805,-2.5849,-2.5918,-2.5961,-2.6028,-2.6067,-2.6122,-2.6176,-2.6204,-2.6255,-2.6308,-2.6366,-2.64,-2.6476,-2.6493,-2.6515,-2.6523,-2.6512,-2.6509,-2.6535,-2.6531,-2.654,-2.6539,-2.6539,-2.6538,0,-2.5715,-2.5761,-2.5842,-2.5917,-2.5937,-2.5984,-2.6049,-2.6095,-2.6133,-2.6202,-2.622,-2.6281,-2.6351,-2.64,-2.649,-2.6513,-2.6595,-2.6603,-2.6573,-2.6577,-2.6611,-2.6607,-2.6714,-2.6731,-2.6663,-2.6663,-2.6664,0,-2.5752,-2.5798,-2.5878,-2.5916,-2.5953,-2.6014,-2.6057,-2.6102,-2.6145,-2.6222,-2.6259,-2.6331,-2.6391,-2.6503,-2.6556,-2.6626,-2.6636,-2.6669,-2.6646,-2.6634,-2.6636,-2.6632,-2.6638,-2.6671,-2.6672,-2.6672,-2.6673,0,-2.5813,-2.5834,-2.5893,-2.5961,-2.601,-2.6066,-2.6123,-2.6153,-2.6208,-2.6256,-2.6328,-2.6375,-2.6468,-2.654,-2.6615,-2.6656,-2.6674,-2.668,-2.6692,-2.668,-2.6661,-2.6672,-2.6582,-2.6676,-2.6676,-2.6676,-2.6676,-2.6675,-2.585,-2.5893,-2.5956,-2.6022,-2.6069,-2.6122,-2.6168,-2.6213,-2.6273,-2.6352,-2.6376,-2.6451,-2.6516,-2.6619,-2.6662,-2.6723,-2.672,-2.6737,-2.6742,-2.6745,-2.6745,-2.6652,-2.6737,-2.6737,-2.6737,-2.6737,-2.6737,0,-2.5912,-2.5954,-2.6015,-2.6092,-2.6145,-2.6157,-2.6221,-2.6265,-2.633,-2.6389,-2.6447,-2.6532,-2.6602,-2.6662,-2.6736,-2.6773,-2.6784,-2.6791,-2.6788,-2.6798,-2.6743,-2.6725,-2.6781,-2.6781,-2.6781,-2.6781,-2.6781,-2.6781,-2.595,-2.6024,-2.6053,-2.6151,-2.6194,-2.6267,-2.6303,-2.6352,-2.6399,-2.6491,-2.655,-2.6588,-2.6648,-2.6727,-2.6793,-2.6809,-2.6835,-2.6841,-2.6858,-2.6806,-2.6801,-2.6796,-2.6779,-2.6846,-2.6846,-2.6908,-2.6908,-2.6909]},{"header":{"parameterUnit":"m.s-1","parameterCategory":1,"la1":30.2991,"la2":30.254,"lo1":-89.0895,"lo2":-89.0444,"dy":0.0017,"dx":0.0017,"nx":28,"ny":28,"refTime":"2025-04-19T03:00:00:Z","depth":0,"parameterNumber":3,"parameterNumberName":"V-component_of_WINDS"},"data":[0,0,0,0,0,0,0,0,0,0,0,0,0,0,0,0,0,0,0,0,0,0,0,0,0,0,0,0,0,0,0,0,0,0,0,0,0,0,0,0,0,0,0,0,0,0,0,0,0,0,0,0,0,0,0,0,0,0,3.0955,3.0955,0,3.0949,3.0949,3.0949,3.095,3.095,3.095,3.095,3.0938,3.0937,3.0937,0,0,0,0,0,0,0,0,0,0,0,0,0,3.0964,3.0964,3.0955,3.0955,3.0955,3.0949,3.0949,3.0949,3.095,3.095,3.095,3.095,3.0938,3.0938,3.0937,0,0,0,0,0,0,0,0,0,0,0,0,0,3.0959,3.0964,3.0955,3.0955,3.0955,3.0949,3.0949,3.0949,3.095,3.095,3.095,3.095,3.0938,3.0938,3.0937,3.0929,0,0,3.0935,3.0935,0,0,0,0,0,0,0,0,3.096,3.0959,3.0955,3.0955,3.0955,3.0951,3.0948,3.0942,3.095,3.0951,3.095,3.095,3.0942,3.0941,3.0939,3.0929,3.0928,3.0935,3.0934,3.0934,3.0934,0,0,0,0,0,0,0,3.096,3.0959,3.0952,3.0955,3.0955,3.0954,3.0954,3.0947,3.0945,3.0951,3.0951,3.0951,3.0941,3.094,3.0939,3.0928,3.0935,3.0934,3.0934,3.0934,3.0915,3.0915,0,0,0,0,0,0,3.0961,3.0959,3.0953,3.0952,3.0958,3.0954,3.0953,3.0952,3.0945,3.0945,3.0951,3.0951,3.0941,3.0939,3.0938,3.0931,3.0934,3.0934,3.0933,3.0915,3.0915,3.0915,0,0,0,0,0,0,3.0961,3.096,3.0953,3.0956,3.0955,3.0953,3.0952,3.0951,3.0949,3.0945,3.0944,3.0949,3.0941,3.0939,3.0933,3.093,3.0933,3.0933,3.0915,3.0915,3.0915,3.0915,0,0,0,0,0,0,3.0961,3.096,3.0958,3.0956,3.0955,3.0948,3.0951,3.0951,3.0949,3.0949,3.0944,3.0943,3.0941,3.0934,3.0932,3.093,3.0932,3.0915,3.0915,3.0915,3.0915,3.0915,3.0915,0,0,0,0,0,3.0962,3.0956,3.0958,3.0957,3.0952,3.0948,3.0947,3.0947,3.0949,3.0946,3.0944,3.0943,3.0931,3.0933,3.0931,3.0928,3.0915,3.0915,3.0915,3.0915,3.0915,3.0915,0,0,0,0,0,0,3.0954,3.0956,3.0957,3.0951,3.095,3.0948,3.0945,3.0946,3.0942,3.0942,3.094,3.0939,3.0933,3.093,3.0932,3.0923,3.0923,3.0923,3.0925,3.0924,3.0924,3.0925,3.0932,0,0,0,0,0,3.0953,3.0951,3.0952,3.0946,3.0946,3.0946,3.0944,3.0944,3.0942,3.094,3.0938,3.0934,3.093,3.0927,3.0923,3.0915,3.0915,3.0913,3.0913,3.0913,3.0912,3.091,3.091,3.0914,3.0914,3.0914,0,0,3.0948,3.0949,3.0947,3.0945,3.0944,3.0942,3.0945,3.0941,3.094,3.0939,3.0934,3.0932,3.0928,3.0923,3.0919,3.092,3.0911,3.0912,3.0912,3.0911,3.091,3.091,3.0909,3.0914,3.0914,3.0914,0,0,3.0938,3.0938,3.0935,3.0936,3.0935,3.0936,3.0936,3.0935,3.0934,3.093,3.0931,3.0928,3.092,3.0918,3.0916,3.0911,3.091,3.091,3.0908,3.0906,3.0906,3.0906,3.0905,3.0905,3.0909,3.0909,3.0909,0,3.0932,3.093,3.0933,3.0931,3.0931,3.0934,3.0931,3.093,3.0928,3.0927,3.0928,3.0921,3.0918,3.0914,3.0913,3.0911,3.091,3.091,3.0906,3.0906,3.0906,3.0905,3.0905,3.0909,3.0909,3.0909,3.0909,0,3.0923,3.0922,3.0919,3.092,3.092,3.0917,3.0919,3.0918,3.092,3.092,3.0917,3.0915,3.0911,3.091,3.091,3.0906,3.0907,3.0907,3.0908,3.0906,3.0905,3.0905,3.0909,3.0909,3.0909,3.0909,0,0,3.0905,3.0912,3.0911,3.0913,3.0915,3.0914,3.0912,3.0912,3.0912,3.091,3.0909,3.0905,3.0907,3.0905,3.0905,3.0904,3.0902,3.0904,3.0904,3.0905,3.09,3.09,3.0899,3.0902,3.0902,3.0902,3.0901,0,3.0896,3.0896,3.09,3.0898,3.0898,3.0903,3.0902,3.0903,3.0904,3.0904,3.0904,3.0902,3.0904,3.0903,3.0903,3.0902,3.0901,3.0903,3.0901,3.0901,3.0902,3.0899,3.0898,3.0896,3.09,3.09,3.09,0,3.0885,3.0888,3.0887,3.0893,3.0893,3.0892,3.0894,3.0893,3.0895,3.0896,3.0897,3.0898,3.0897,3.0899,3.0898,3.0899,3.0899,3.0899,3.0899,3.0898,3.09,3.0899,3.0895,3.0895,3.09,3.09,3.09,0,3.0875,3.0877,3.0878,3.0879,3.0886,3.0885,3.0887,3.089,3.0891,3.0892,3.0893,3.0893,3.0893,3.0893,3.0895,3.0896,3.0894,3.0895,3.0895,3.0895,3.0893,3.0893,3.089,3.0893,3.0893,3.0893,3.0893,0,3.0864,3.0863,3.0874,3.0874,3.0874,3.088,3.0879,3.0881,3.0884,3.0885,3.0889,3.0889,3.0891,3.0892,3.0893,3.0893,3.0893,3.0894,3.0894,3.0893,3.0893,3.0893,3.0893,3.0893,3.0893,3.0893,3.0893,0,3.0851,3.0858,3.0859,3.0867,3.0869,3.0869,3.0875,3.0875,3.0879,3.088,3.088,3.0885,3.0886,3.0889,3.0889,3.0891,3.089,3.0891,3.089,3.0891,3.0891,3.0891,3.0887,3.0887,3.0889,3.0889,3.0889,0,3.0844,3.0844,3.0854,3.0856,3.0859,3.0862,3.0864,3.0871,3.0872,3.0877,3.0877,3.088,3.0882,3.0884,3.0886,3.0888,3.0889,3.0888,3.0888,3.0889,3.089,3.089,3.0891,3.0887,3.0887,3.0887,3.0887,0,3.0832,3.0836,3.084,3.0847,3.085,3.0854,3.0858,3.086,3.0867,3.0869,3.0872,3.0874,3.0878,3.0881,3.0884,3.0885,3.0887,3.0887,3.0887,3.0886,3.0887,3.0888,3.089,3.0886,3.0886,3.0886,3.0886,3.0886,3.0822,3.0824,3.0832,3.0837,3.0842,3.0847,3.0849,3.0855,3.0858,3.0863,3.0867,3.087,3.0875,3.088,3.0881,3.0884,3.0885,3.0884,3.0884,3.0884,3.0885,3.0887,3.0884,3.0884,3.0884,3.0884,3.0884,0,3.081,3.0817,3.0822,3.083,3.0835,3.084,3.0846,3.0849,3.0853,3.0859,3.0862,3.0867,3.0871,3.0876,3.088,3.0881,3.0882,3.0882,3.0881,3.0882,3.0883,3.0883,3.0881,3.0881,3.0881,3.0881,3.0881,3.0881,3.0805,3.0809,3.0815,3.0823,3.0829,3.0834,3.0838,3.0843,3.0848,3.0854,3.0858,3.0863,3.0868,3.0873,3.0877,3.0879,3.088,3.0879,3.0881,3.0881,3.0882,3.0882,3.0882,3.088,3.088,3.088,3.088,3.088]}]]